Location: Unspecified
(0.0000°N, 0.0000°E)
Time: 20:56:13
(UTC+00:00)

N. Korean satellite - Pass Details

Date: 18 August 2017
Orbit: 459 x 517 km, 97.2° (Epoch: 22 October)

Event Time Altitude Azimuth Distance (km) Brightness Sun altitude
Rises 18:41:59 0° 176° (S) 2,485 10.0 -9.3°
Reaches altitude 10° 18:44:03 10° 180° (S) 1,612 9.1 -9.8°
Maximum altitude 18:47:26 56° 259° (W) 562 7.2 -10.6°
Drops below altitude 10° 18:50:52 10° 338° (NNW) 1,627 9.7 -11.5°
Sets 18:52:57 0° 342° (NNW) 2,511 10.6 -12.0°
